Time,TemperatureF,DewpointF,PressureIn,WindDirection,WindDirectionDegrees,WindSpeedMPH,WindSpeedGustMPH,Humidity,HourlyPrecipIn,Conditions,Clouds,dailyrainin,SoftwareType,DateUTC
2013-07-28 00:00:00,61.9,60.2,30.00,SE,140,0.0,0.0,94,0.00,CLR,FEW,0.00,WeatherDisplay:10.37,2013-07-28 04:00:00,
2013-07-28 00:01:00,61.9,60.2,30.00,SE,140,0.0,0.0,94,0.00,CLR,FEW,0.00,WeatherDisplay:10.37,2013-07-28 04:01:00,
2013-07-28 00:02:00,61.9,60.2,30.00,SE,140,0.0,0.0,94,0.00,CLR,FEW,0.00,WeatherDisplay:10.37,2013-07-28 04:02:00,
2013-07-28 00:04:00,61.8,60.1,30.00,SE,140,0.0,0.0,94,0.00,CLR,FEW,0.00,WeatherDisplay:10.37,2013-07-28 04:04:00,
2013-07-28 00:09:00,61.7,60.0,30.00,SE,140,0.0,0.0,94,0.00,CLR,FEW,0.00,WeatherDisplay:10.37,2013-07-28 04:09:00,
2013-07-28 00:14:00,61.6,59.9,30.00,SE,140,0.0,0.0,94,0.00,CLR,FEW,0.00,WeatherDisplay:10.37,2013-07-28 04:14:00,
2013-07-28 00:19:00,61.5,59.8,29.99,SE,140,0.0,0.0,94,0.00,CLR,FEW,0.00,WeatherDisplay:10.37,2013-07-28 04:19:00,
2013-07-28 00:24:00,61.4,59.7,29.99,SE,140,0.0,0.0,94,0.00,CLR,FEW,0.00,WeatherDisplay:10.37,2013-07-28 04:24:00,
2013-07-28 00:29:00,61.4,60.0,29.99,SE,140,0.0,0.0,95,0.00,CLR,FEW,0.00,WeatherDisplay:10.37,2013-07-28 04:29:00,
2013-07-28 00:34:00,61.5,60.1,29.99,SE,140,0.0,0.0,95,0.00,CLR,FEW,0.00,WeatherDisplay:10.37,2013-07-28 04:34:00,
2013-07-28 00:39:00,61.3,59.6,30.00,SE,140,0.0,0.0,94,0.00,CLR,FEW,0.00,WeatherDisplay:10.37,2013-07-28 04:39:00,
2013-07-28 00:44:00,61.0,59.3,30.00,SE,140,0.0,0.0,94,0.00,CLR,FEW,0.00,WeatherDisplay:10.37,2013-07-28 04:44:00,
2013-07-28 00:49:00,60.5,58.5,29.99,SE,140,0.0,0.0,93,0.00,CLR,FEW,0.00,WeatherDisplay:10.37,2013-07-28 04:49:00,
2013-07-28 00:54:00,60.2,58.2,30.00,SE,140,0.0,0.0,93,0.00,CLR,FEW,0.00,WeatherDisplay:10.37,2013-07-28 04:54:00,
2013-07-28 00:59:00,60.0,58.3,29.99,SE,140,0.0,0.0,94,0.00,CLR,FEW,0.00,WeatherDisplay:10.37,2013-07-28 04:59:00,
2013-07-28 01:04:00,59.9,58.2,30.00,SE,140,0.0,0.0,94,0.00,CLR,FEW,0.00,WeatherDisplay:10.37,2013-07-28 05:04:00,
2013-07-28 01:09:00,59.8,58.1,30.00,SE,140,0.0,0.0,94,0.00,CLR,FEW,0.00,WeatherDisplay:10.37,2013-07-28 05:09:00,
2013-07-28 01:14:00,59.6,57.9,29.99,SE,140,0.0,0.0,94,0.00,CLR,FEW,0.00,WeatherDisplay:10.37,2013-07-28 05:14:00,
2013-07-28 01:19:00,59.4,57.7,29.99,SE,140,0.0,0.0,94,0.00,CLR,FEW,0.00,WeatherDisplay:10.37,2013-07-28 05:19:00,
2013-07-28 01:24:00,59.2,57.5,30.00,SE,140,0.0,0.0,94,0.00,CLR,FEW,0.00,WeatherDisplay:10.37,2013-07-28 05:24:00,
2013-07-28 01:29:00,59.1,57.4,29.99,SE,140,0.0,0.0,94,0.00,CLR,FEW,0.00,WeatherDisplay:10.37,2013-07-28 05:29:00,
2013-07-28 01:34:00,59.1,57.7,30.00,SE,140,0.0,0.0,95,0.00,CLR,FEW,0.00,WeatherDisplay:10.37,2013-07-28 05:34:00,
2013-07-28 01:39:00,59.0,57.6,30.00,SE,140,0.0,0.0,95,0.00,CLR,FEW,0.00,WeatherDisplay:10.37,2013-07-28 05:39:00,
2013-07-28 01:44:00,58.7,57.0,30.00,SE,140,0.0,0.0,94,0.00,CLR,FEW,0.00,WeatherDisplay:10.37,2013-07-28 05:44:00,
2013-07-28 01:49:00,58.3,56.6,30.00,SE,140,0.0,0.0,94,0.00,CLR,FEW,0.00,WeatherDisplay:10.37,2013-07-28 05:49:00,
2013-07-28 01:54:00,58.0,56.3,30.00,SE,140,0.0,0.0,94,0.00,CLR,FEW,0.00,WeatherDisplay:10.37,2013-07-28 05:54:00,
2013-07-28 01:59:00,57.8,56.1,30.00,SE,140,0.0,0.0,94,0.00,CLR,FEW,0.00,WeatherDisplay:10.37,2013-07-28 05:59:00,
2013-07-28 02:04:00,57.8,56.4,30.00,SE,140,0.0,0.0,95,0.00,CLR,FEW,0.00,WeatherDisplay:10.37,2013-07-28 06:04:00,
2013-07-28 02:09:00,58.0,56.9,30.00,SE,140,0.0,0.0,96,0.00,CLR,FEW,0.00,WeatherDisplay:10.37,2013-07-28 06:09:00,
2013-07-28 02:14:00,58.2,57.1,30.00,SE,140,0.0,0.0,96,0.00,CLR,FEW,0.00,WeatherDisplay:10.37,2013-07-28 06:14:00,
2013-07-28 02:19:00,58.2,57.1,30.00,SE,140,0.0,0.0,96,0.00,CLR,FEW,0.00,WeatherDisplay:10.37,2013-07-28 06:19:00,
2013-07-28 02:24:00,58.1,57.0,30.00,SE,140,0.0,0.0,96,0.00,CLR,FEW,0.00,WeatherDisplay:10.37,2013-07-28 06:24:00,
2013-07-28 02:29:00,58.0,56.6,30.00,SE,140,0.0,0.0,95,0.00,CLR,FEW,0.00,WeatherDisplay:10.37,2013-07-28 06:29:00,
2013-07-28 02:34:00,57.8,56.4,30.00,SE,140,0.0,0.0,95,0.00,CLR,FEW,0.00,WeatherDisplay:10.37,2013-07-28 06:34:00,
2013-07-28 02:39:00,57.6,56.2,29.99,SE,140,0.0,0.0,95,0.00,CLR,FEW,0.00,WeatherDisplay:10.37,2013-07-28 06:39:00,
2013-07-28 02:44:00,57.5,56.1,29.99,SE,140,0.0,0.0,95,0.00,CLR,FEW,0.00,WeatherDisplay:10.37,2013-07-28 06:44:00,
2013-07-28 02:49:00,57.4,56.0,29.99,SE,140,0.0,0.0,95,0.00,CLR,FEW,0.00,WeatherDisplay:10.37,2013-07-28 06:49:00,
2013-07-28 02:54:00,57.3,55.9,29.99,SE,140,0.0,0.0,95,0.00,CLR,FEW,0.00,WeatherDisplay:10.37,2013-07-28 06:54:00,
2013-07-28 02:59:00,57.3,55.9,29.98,SE,140,0.0,0.0,95,0.00,CLR,FEW,0.00,WeatherDisplay:10.37,2013-07-28 06:59:00,
2013-07-28 03:04:00,57.3,55.9,29.98,SE,140,0.0,0.0,95,0.00,CLR,FEW,0.00,WeatherDisplay:10.37,2013-07-28 07:04:00,
2013-07-28 03:09:00,57.2,56.1,29.98,SE,140,0.0,0.0,96,0.00,CLR,FEW,0.00,WeatherDisplay:10.37,2013-07-28 07:09:00,
2013-07-28 03:14:00,57.3,56.2,29.98,SE,140,0.0,0.0,96,0.00,CLR,FEW,0.00,WeatherDisplay:10.37,2013-07-28 07:14:00,
2013-07-28 03:19:00,57.2,56.1,29.98,SE,140,0.0,0.0,96,0.00,CLR,FEW,0.00,WeatherDisplay:10.37,2013-07-28 07:19:00,
2013-07-28 03:24:00,57.2,56.1,29.98,SE,140,0.0,0.0,96,0.00,CLR,FEW,0.00,WeatherDisplay:10.37,2013-07-28 07:24:00,
2013-07-28 03:29:00,56.8,55.4,29.98,SE,140,0.0,0.0,95,0.00,CLR,FEW,0.00,WeatherDisplay:10.37,2013-07-28 07:29:00,
2013-07-28 03:34:00,56.6,55.2,29.98,SE,140,0.0,0.0,95,0.00,CLR,FEW,0.00,WeatherDisplay:10.37,2013-07-28 07:34:00,
2013-07-28 03:39:00,56.4,55.0,29.98,SE,140,0.0,0.0,95,0.00,CLR,FEW,0.00,WeatherDisplay:10.37,2013-07-28 07:39:00,
2013-07-28 03:44:00,56.3,54.9,29.98,SE,140,0.0,0.0,95,0.00,CLR,FEW,0.00,WeatherDisplay:10.37,2013-07-28 07:44:00,
2013-07-28 03:49:00,56.2,54.8,29.99,SE,140,0.0,0.0,95,0.00,CLR,FEW,0.00,WeatherDisplay:10.37,2013-07-28 07:49:00,
2013-07-28 03:54:00,56.3,55.2,29.98,SE,140,0.0,0.0,96,0.00,CLR,FEW,0.00,WeatherDisplay:10.37,2013-07-28 07:54:00,
2013-07-28 03:59:00,56.4,55.3,29.99,SE,140,0.0,0.0,96,0.00,CLR,FEW,0.00,WeatherDisplay:10.37,2013-07-28 07:59:00,
2013-07-28 04:04:00,56.2,54.8,29.99,SE,140,0.0,0.0,95,0.00,CLR,FEW,0.00,WeatherDisplay:10.37,2013-07-28 08:04:00,
2013-07-28 04:09:00,56.2,55.1,29.99,SE,140,0.0,0.0,96,0.00,CLR,FEW,0.00,WeatherDisplay:10.37,2013-07-28 08:09:00,
2013-07-28 04:14:00,56.3,55.2,29.99,SE,140,0.0,0.0,96,0.00,CLR,FEW,0.00,WeatherDisplay:10.37,2013-07-28 08:14:00,
2013-07-28 04:19:00,56.5,55.4,29.99,SE,140,0.0,0.0,96,0.00,CLR,FEW,0.00,WeatherDisplay:10.37,2013-07-28 08:19:00,
2013-07-28 04:24:00,56.7,55.6,29.99,SE,140,0.0,0.0,96,0.00,CLR,FEW,0.00,WeatherDisplay:10.37,2013-07-28 08:24:00,
2013-07-28 04:29:00,57.1,56.3,29.99,SE,140,0.0,0.0,97,0.00,CLR,FEW,0.00,WeatherDisplay:10.37,2013-07-28 08:29:00,
2013-07-28 04:34:00,57.4,56.6,29.98,SE,140,0.0,0.0,97,0.00,CLR,FEW,0.00,WeatherDisplay:10.37,2013-07-28 08:34:00,
2013-07-28 04:39:00,57.6,56.8,29.98,SE,140,0.0,0.0,97,0.00,CLR,FEW,0.00,WeatherDisplay:10.37,2013-07-28 08:39:00,
2013-07-28 04:44:00,57.9,57.1,29.98,SE,140,0.0,0.0,97,0.00,CLR,FEW,0.00,WeatherDisplay:10.37,2013-07-28 08:44:00,
2013-07-28 04:49:00,58.1,57.3,29.98,SE,140,0.0,0.0,97,0.00,CLR,FEW,0.00,WeatherDisplay:10.37,2013-07-28 08:49:00,
2013-07-28 04:54:00,58.3,57.5,29.98,SE,140,0.0,0.0,97,0.00,CLR,FEW,0.00,WeatherDisplay:10.37,2013-07-28 08:54:00,
2013-07-28 04:59:00,58.3,57.5,29.98,SE,140,0.0,0.0,97,0.00,CLR,FEW,0.00,WeatherDisplay:10.37,2013-07-28 08:59:00,
2013-07-28 05:04:00,58.1,57.3,29.98,SE,140,0.0,0.0,97,0.00,CLR,FEW,0.00,WeatherDisplay:10.37,2013-07-28 09:04:00,
2013-07-28 05:09:00,58.1,57.3,29.98,SE,140,0.0,0.0,97,0.00,CLR,FEW,0.00,WeatherDisplay:10.37,2013-07-28 09:09:00,
2013-07-28 05:14:00,58.1,57.3,29.98,SE,140,0.0,0.0,97,0.00,CLR,FEW,0.00,WeatherDisplay:10.37,2013-07-28 09:14:00,
2013-07-28 05:19:00,58.1,57.0,29.98,SE,140,0.0,0.0,96,0.00,CLR,FEW,0.00,WeatherDisplay:10.37,2013-07-28 09:19:00,
2013-07-28 05:24:00,58.1,57.3,29.98,SE,140,0.0,0.0,97,0.00,CLR,FEW,0.00,WeatherDisplay:10.37,2013-07-28 09:24:00,
2013-07-28 05:29:00,58.2,57.4,29.98,SE,140,0.0,0.0,97,0.00,CLR,FEW,0.00,WeatherDisplay:10.37,2013-07-28 09:29:00,
2013-07-28 05:34:00,58.3,57.5,29.98,SE,140,0.0,0.0,97,0.00,CLR,FEW,0.00,WeatherDisplay:10.37,2013-07-28 09:34:00,
2013-07-28 05:39:00,58.3,57.5,29.98,SE,140,0.0,0.0,97,0.00,CLR,FEW,0.00,WeatherDisplay:10.37,2013-07-28 09:39:00,
2013-07-28 05:44:00,58.3,57.5,29.98,SE,140,0.0,0.0,97,0.00,CLR,FEW,0.00,WeatherDisplay:10.37,2013-07-28 09:44:00,
2013-07-28 05:49:00,58.4,57.6,29.98,SE,140,0.0,0.0,97,0.00,CLR,FEW,0.00,WeatherDisplay:10.37,2013-07-28 09:49:00,
2013-07-28 05:54:00,58.4,57.6,29.99,SE,140,0.0,0.0,97,0.00,CLR,FEW,0.00,WeatherDisplay:10.37,2013-07-28 09:54:00,
2013-07-28 05:59:00,58.3,57.5,29.99,SE,140,0.0,0.0,97,0.00,CLR,FEW,0.00,WeatherDisplay:10.37,2013-07-28 09:59:00,
2013-07-28 06:04:00,58.3,57.5,29.99,SE,140,0.0,0.0,97,0.00,CLR,FEW,0.00,WeatherDisplay:10.37,2013-07-28 10:04:00,
2013-07-28 06:09:00,58.4,57.6,29.98,SE,140,0.0,0.0,97,0.00,CLR,FEW,0.00,WeatherDisplay:10.37,2013-07-28 10:09:00,
2013-07-28 06:14:00,58.5,57.7,29.98,SE,140,0.0,0.0,97,0.00,CLR,FEW,0.00,WeatherDisplay:10.37,2013-07-28 10:14:00,
2013-07-28 06:19:00,58.8,58.0,29.99,SE,140,0.0,0.0,97,0.00,CLR,FEW,0.00,WeatherDisplay:10.37,2013-07-28 10:19:00,
2013-07-28 06:24:00,58.9,58.1,29.99,SE,140,0.0,0.0,97,0.00,CLR,FEW,0.00,WeatherDisplay:10.37,2013-07-28 10:24:00,
2013-07-28 06:29:00,59.0,58.2,29.99,SE,140,0.0,0.0,97,0.00,CLR,FEW,0.00,WeatherDisplay:10.37,2013-07-28 10:29:00,
2013-07-28 06:34:00,59.0,58.2,29.99,SE,140,0.0,0.0,97,0.00,CLR,FEW,0.00,WeatherDisplay:10.37,2013-07-28 10:34:00,
2013-07-28 06:39:00,59.0,58.2,29.99,SE,140,0.0,0.0,97,0.00,CLR,FEW,0.00,WeatherDisplay:10.37,2013-07-28 10:39:00,
2013-07-28 06:44:00,59.1,58.2,29.99,SE,140,0.0,0.0,97,0.00,CLR,FEW,0.00,WeatherDisplay:10.37,2013-07-28 10:44:00,
2013-07-28 06:49:00,59.1,58.2,29.99,SE,140,0.0,0.0,97,0.00,CLR,FEW,0.00,WeatherDisplay:10.37,2013-07-28 10:49:00,
2013-07-28 06:54:00,59.3,58.4,29.99,SE,140,0.0,0.0,97,0.00,CLR,FEW,0.00,WeatherDisplay:10.37,2013-07-28 10:54:00,
2013-07-28 06:59:00,59.3,58.4,29.99,SE,140,0.0,0.0,97,0.00,CLR,FEW,0.00,WeatherDisplay:10.37,2013-07-28 10:59:00,
2013-07-28 07:04:00,59.4,58.5,29.98,SE,140,0.0,0.0,97,0.00,CLR,FEW,0.00,WeatherDisplay:10.37,2013-07-28 11:04:00,
2013-07-28 07:09:00,59.5,58.6,29.98,SE,140,0.0,0.0,97,0.00,CLR,FEW,0.00,WeatherDisplay:10.37,2013-07-28 11:09:00,
2013-07-28 07:14:00,59.5,58.6,29.98,SE,140,0.0,0.0,97,0.00,CLR,FEW,0.00,WeatherDisplay:10.37,2013-07-28 11:14:00,
2013-07-28 07:19:00,59.6,58.7,29.98,SE,140,0.0,0.0,97,0.00,CLR,FEW,0.00,WeatherDisplay:10.37,2013-07-28 11:19:00,
2013-07-28 07:24:00,59.8,59.2,29.99,SE,140,0.0,0.0,98,0.00,CLR,FEW,0.00,WeatherDisplay:10.37,2013-07-28 11:24:00,
2013-07-28 07:29:00,59.9,59.0,29.99,SE,140,0.0,0.0,97,0.00,CLR,FEW,0.00,WeatherDisplay:10.37,2013-07-28 11:29:00,
2013-07-28 07:34:00,60.1,59.2,29.99,SE,140,0.0,0.0,97,0.00,CLR,FEW,0.00,WeatherDisplay:10.37,2013-07-28 11:34:00,
2013-07-28 07:39:00,60.3,59.7,29.99,SE,140,0.0,0.0,98,0.00,CLR,FEW,0.00,WeatherDisplay:10.37,2013-07-28 11:39:00,
2013-07-28 07:44:00,60.5,59.9,29.99,SE,140,0.0,0.0,98,0.00,CLR,FEW,0.00,WeatherDisplay:10.37,2013-07-28 11:44:00,
2013-07-28 07:49:00,60.9,60.3,29.99,SE,140,0.0,0.0,98,0.00,CLR,FEW,0.00,WeatherDisplay:10.37,2013-07-28 11:49:00,
2013-07-28 07:54:00,61.2,60.6,30.00,SE,140,0.0,0.0,98,0.00,CLR,FEW,0.00,WeatherDisplay:10.37,2013-07-28 11:54:00,
2013-07-28 07:59:00,61.5,60.9,30.00,SE,140,0.0,0.0,98,0.00,CLR,FEW,0.00,WeatherDisplay:10.37,2013-07-28 11:59:00,
2013-07-28 08:04:00,61.8,61.2,29.99,SE,140,0.0,0.0,98,0.00,CLR,FEW,0.00,WeatherDisplay:10.37,2013-07-28 12:04:00,
2013-07-28 08:09:00,62.2,61.6,29.99,SE,140,0.0,0.0,98,0.00,CLR,FEW,0.00,WeatherDisplay:10.37,2013-07-28 12:09:00,
2013-07-28 08:14:00,62.5,61.9,29.99,SE,140,0.0,0.0,98,0.00,CLR,FEW,0.00,WeatherDisplay:10.37,2013-07-28 12:14:00,
2013-07-28 08:19:00,62.8,62.2,30.00,SE,140,0.0,0.0,98,0.00,CLR,FEW,0.00,WeatherDisplay:10.37,2013-07-28 12:19:00,
2013-07-28 08:24:00,63.0,62.4,30.00,SE,140,0.0,0.0,98,0.00,CLR,FEW,0.00,WeatherDisplay:10.37,2013-07-28 12:24:00,
2013-07-28 08:28:00,63.4,62.8,30.00,SE,140,0.0,0.0,98,0.00,CLR,FEW,0.00,WeatherDisplay:10.37,2013-07-28 12:28:00,
2013-07-28 08:33:00,63.9,63.3,29.99,SE,140,2.3,2.3,98,0.00,CLR,FEW,0.00,WeatherDisplay:10.37,2013-07-28 12:33:00,
2013-07-28 08:38:00,64.4,63.5,30.00,SE,140,1.2,1.2,97,0.00,CLR,FEW,0.00,WeatherDisplay:10.37,2013-07-28 12:38:00,
2013-07-28 08:43:00,64.8,63.6,29.99,SE,140,1.2,0.0,96,0.00,CLR,FEW,0.00,WeatherDisplay:10.37,2013-07-28 12:43:00,
2013-07-28 08:48:00,65.6,64.1,30.00,SE,140,0.0,0.0,95,0.00,CLR,FEW,0.00,WeatherDisplay:10.37,2013-07-28 12:48:00,
2013-07-28 08:53:00,66.1,63.7,29.99,SE,140,0.0,0.0,92,0.00,CLR,FEW,0.00,WeatherDisplay:10.37,2013-07-28 12:53:00,
2013-07-28 08:58:00,66.9,63.9,29.99,NNE,15,2.3,2.3,90,0.00,CLR,FEW,0.00,WeatherDisplay:10.37,2013-07-28 12:58:00,
2013-07-28 09:03:00,67.5,64.8,30.00,NNE,13,0.0,0.0,91,0.00,CLR,FEW,0.00,WeatherDisplay:10.37,2013-07-28 13:03:00,
2013-07-28 09:08:00,67.9,64.5,30.00,NNE,14,0.0,0.0,89,0.00,CLR,FEW,0.00,WeatherDisplay:10.37,2013-07-28 13:08:00,
2013-07-28 09:13:00,68.5,64.5,30.00,NNE,14,0.0,0.0,87,0.00,CLR,FEW,0.00,WeatherDisplay:10.37,2013-07-28 13:13:00,
2013-07-28 09:18:00,68.9,65.2,30.00,NNE,14,0.0,0.0,88,0.00,CLR,FEW,0.00,WeatherDisplay:10.37,2013-07-28 13:18:00,
2013-07-28 09:23:00,69.1,63.7,30.00,NNE,14,0.0,0.0,83,0.00,CLR,FEW,0.00,WeatherDisplay:10.37,2013-07-28 13:23:00,
2013-07-28 09:28:00,69.4,64.0,30.00,NNE,14,0.0,0.0,83,0.00,CLR,FEW,0.00,WeatherDisplay:10.37,2013-07-28 13:28:00,
2013-07-28 09:33:00,69.7,64.0,30.00,NNE,14,0.0,0.0,82,0.00,CLR,FEW,0.00,WeatherDisplay:10.37,2013-07-28 13:33:00,
2013-07-28 09:38:00,69.9,64.8,30.00,NNE,14,0.0,0.0,84,0.00,CLR,FEW,0.00,WeatherDisplay:10.37,2013-07-28 13:38:00,
2013-07-28 09:43:00,70.1,64.0,29.99,NNE,14,0.0,0.0,81,0.00,CLR,FEW,0.00,WeatherDisplay:10.37,2013-07-28 13:43:00,
2013-07-28 09:48:00,70.3,64.2,30.00,NNE,14,0.0,0.0,81,0.00,CLR,FEW,0.00,WeatherDisplay:10.37,2013-07-28 13:48:00,
2013-07-28 09:53:00,70.7,65.3,30.00,NNE,14,0.0,0.0,83,0.00,CLR,FEW,0.00,WeatherDisplay:10.37,2013-07-28 13:53:00,
2013-07-28 09:58:00,71.2,64.4,29.99,NNE,14,1.2,1.2,79,0.00,CLR,FEW,0.00,WeatherDisplay:10.37,2013-07-28 13:58:00,
2013-07-28 10:03:00,71.5,65.0,29.99,NNE,14,0.0,0.0,80,0.00,CLR,FEW,0.00,WeatherDisplay:10.37,2013-07-28 14:03:00,
2013-07-28 10:08:00,71.8,65.3,29.99,NNE,13,1.2,0.0,80,0.00,CLR,FEW,0.00,WeatherDisplay:10.37,2013-07-28 14:08:00,
2013-07-28 10:13:00,72.1,63.7,29.99,NNE,13,2.3,2.3,75,0.00,CLR,FEW,0.00,WeatherDisplay:10.37,2013-07-28 14:13:00,
2013-07-28 10:18:00,72.5,63.4,29.99,NNE,13,0.0,0.0,73,0.00,CLR,FEW,0.00,WeatherDisplay:10.37,2013-07-28 14:18:00,
2013-07-28 10:23:00,73.0,63.4,29.98,NNE,13,0.0,0.1,72,0.00,CLR,FEW,0.00,WeatherDisplay:10.37,2013-07-28 14:23:00,
2013-07-28 10:28:00,73.5,63.5,29.98,NNE,13,0.0,0.0,71,0.00,CLR,FEW,0.00,WeatherDisplay:10.37,2013-07-28 14:28:00,
2013-07-28 10:33:00,73.7,62.1,29.98,NNE,13,1.2,0.0,67,0.00,CLR,FEW,0.00,WeatherDisplay:10.37,2013-07-28 14:33:00,
2013-07-28 10:38:00,73.7,62.9,29.98,NNE,13,0.0,0.1,69,0.00,CLR,FEW,0.00,WeatherDisplay:10.37,2013-07-28 14:38:00,
2013-07-28 10:43:00,74.0,63.2,29.98,NNE,13,2.3,0.0,69,0.00,CLR,FEW,0.00,WeatherDisplay:10.37,2013-07-28 14:43:00,
2013-07-28 10:48:00,74.4,65.6,29.98,NNE,13,3.5,3.5,74,0.00,CLR,FEW,0.00,WeatherDisplay:10.37,2013-07-28 14:48:00,
2013-07-28 10:53:00,74.6,63.3,29.98,NNE,19,1.2,0.0,68,0.00,CLR,FEW,0.00,WeatherDisplay:10.37,2013-07-28 14:53:00,
2013-07-28 10:58:00,74.7,63.0,29.98,NNE,19,0.0,0.0,67,0.00,CLR,FEW,0.00,WeatherDisplay:10.37,2013-07-28 14:58:00,
2013-07-28 11:03:00,74.9,65.7,29.97,NNE,19,1.2,0.0,73,0.00,CLR,FEW,0.00,WeatherDisplay:10.37,2013-07-28 15:03:00,
2013-07-28 11:08:00,75.1,65.5,29.98,NNE,19,0.0,0.1,72,0.00,CLR,FEW,0.00,WeatherDisplay:10.37,2013-07-28 15:08:00,
2013-07-28 11:13:00,75.0,65.8,29.97,NNE,19,3.0,3.0,73,0.00,CLR,FEW,0.00,WeatherDisplay:10.37,2013-07-28 15:13:00,
2013-07-28 11:18:00,74.8,65.2,29.97,WNW,300,0.0,0.0,72,0.00,CLR,FEW,0.00,WeatherDisplay:10.37,2013-07-28 15:18:00,
2013-07-28 11:23:00,74.8,63.1,29.97,SE,136,1.2,0.0,67,0.00,CLR,FEW,0.00,WeatherDisplay:10.37,2013-07-28 15:23:00,
2013-07-28 11:28:00,75.3,65.2,29.97,SE,135,1.2,0.0,71,0.00,CLR,FEW,0.00,WeatherDisplay:10.37,2013-07-28 15:28:00,
2013-07-28 11:33:00,75.7,63.5,29.97,SE,136,1.2,0.0,66,0.00,CLR,FEW,0.00,WeatherDisplay:10.37,2013-07-28 15:33:00,
2013-07-28 11:38:00,75.8,61.8,29.97,SE,135,1.2,1.2,62,0.00,CLR,FEW,0.00,WeatherDisplay:10.37,2013-07-28 15:38:00,
2013-07-28 11:43:00,75.8,63.6,29.97,SE,135,0.0,0.0,66,0.00,CLR,FEW,0.00,WeatherDisplay:10.37,2013-07-28 15:43:00,
2013-07-28 11:48:00,76.0,62.9,29.97,SE,135,1.2,1.2,64,0.00,CLR,FEW,0.00,WeatherDisplay:10.37,2013-07-28 15:48:00,
2013-07-28 11:53:00,76.0,63.4,29.97,SE,135,1.2,1.2,65,0.00,CLR,FEW,0.00,WeatherDisplay:10.37,2013-07-28 15:53:00,
2013-07-28 11:58:00,75.8,64.5,29.97,SE,135,1.2,0.0,68,0.00,CLR,FEW,0.00,WeatherDisplay:10.37,2013-07-28 15:58:00,
2013-07-28 12:03:00,75.8,64.9,29.97,SE,135,1.2,1.2,69,0.00,CLR,FEW,0.00,WeatherDisplay:10.37,2013-07-28 16:03:00,
2013-07-28 12:08:00,75.7,64.4,29.97,SE,135,0.0,0.0,68,0.00,CLR,FEW,0.00,WeatherDisplay:10.37,2013-07-28 16:08:00,
2013-07-28 12:13:00,75.7,64.8,29.97,SE,135,1.2,0.0,69,0.00,CLR,FEW,0.00,WeatherDisplay:10.37,2013-07-28 16:13:00,
2013-07-28 12:18:00,75.8,63.2,29.97,SE,135,1.2,0.0,65,0.00,CLR,FEW,0.00,WeatherDisplay:10.37,2013-07-28 16:18:00,
2013-07-28 12:23:00,76.0,62.5,29.97,SE,135,1.2,1.2,63,0.00,CLR,FEW,0.00,WeatherDisplay:10.37,2013-07-28 16:23:00,
2013-07-28 12:28:00,76.4,64.2,29.97,SE,135,0.0,0.0,66,0.00,CLR,FEW,0.00,WeatherDisplay:10.37,2013-07-28 16:28:00,
2013-07-28 12:33:00,76.6,64.8,29.96,SE,135,0.0,0.0,67,0.00,CLR,FEW,0.00,WeatherDisplay:10.37,2013-07-28 16:33:00,
2013-07-28 12:38:00,76.7,64.5,29.96,SE,135,0.0,0.0,66,0.00,CLR,FEW,0.00,WeatherDisplay:10.37,2013-07-28 16:38:00,
2013-07-28 12:43:00,76.8,63.7,29.96,SE,135,0.0,0.0,64,0.00,CLR,FEW,0.00,WeatherDisplay:10.37,2013-07-28 16:43:00,
2013-07-28 12:48:00,77.1,65.3,29.96,SE,135,0.0,0.0,67,0.00,CLR,FEW,0.00,WeatherDisplay:10.37,2013-07-28 16:48:00,
2013-07-28 12:49:00,77.1,64.9,29.96,SE,135,0.0,0.0,66,0.00,CLR,FEW,0.00,WeatherDisplay:10.37,2013-07-28 16:49:00,
2013-07-28 12:54:00,77.5,64.8,29.96,SE,136,3.5,3.5,65,0.00,CLR,FEW,0.00,WeatherDisplay:10.37,2013-07-28 16:54:00,
2013-07-28 12:59:00,77.7,65.9,29.96,SE,136,0.0,0.0,67,0.00,CLR,FEW,0.00,WeatherDisplay:10.37,2013-07-28 16:59:00,
2013-07-28 13:04:00,78.0,65.7,29.96,SE,136,1.2,0.0,66,0.00,CLR,FEW,0.00,WeatherDisplay:10.37,2013-07-28 17:04:00,
2013-07-28 13:09:00,78.2,66.3,29.96,ENE,78,3.5,0.0,67,0.00,CLR,FEW,0.00,WeatherDisplay:10.37,2013-07-28 17:09:00,
2013-07-28 13:14:00,78.6,67.2,29.96,NE,44,1.2,1.2,68,0.00,CLR,FEW,0.00,WeatherDisplay:10.37,2013-07-28 17:14:00,
2013-07-28 13:19:00,79.2,66.9,29.96,NE,44,2.3,2.3,66,0.00,CLR,FEW,0.00,WeatherDisplay:10.37,2013-07-28 17:19:00,
2013-07-28 13:24:00,79.5,66.7,29.96,NE,44,2.3,2.3,65,0.00,CLR,FEW,0.00,WeatherDisplay:10.37,2013-07-28 17:24:00,
2013-07-28 13:29:00,79.6,66.3,29.96,NE,53,1.2,1.2,64,0.00,CLR,FEW,0.00,WeatherDisplay:10.37,2013-07-28 17:29:00,
2013-07-28 13:34:00,79.6,66.8,29.96,NE,53,1.2,1.2,65,0.00,CLR,FEW,0.00,WeatherDisplay:10.37,2013-07-28 17:34:00,
2013-07-28 13:41:00,80.1,67.3,29.96,NE,42,1.2,0.0,65,0.00,CLR,FEW,0.00,WeatherDisplay:10.37,2013-07-28 17:41:00,
2013-07-28 13:46:00,80.4,66.2,29.96,East,94,2.3,2.3,62,0.00,CLR,FEW,0.00,WeatherDisplay:10.37,2013-07-28 17:46:00,
2013-07-28 13:51:00,80.7,66.0,29.96,East,94,0.0,0.0,61,0.00,CLR,FEW,0.00,WeatherDisplay:10.37,2013-07-28 17:51:00,
2013-07-28 13:56:00,81.1,68.7,29.96,East,94,0.0,0.0,66,0.00,CLR,FEW,0.00,WeatherDisplay:10.37,2013-07-28 17:56:00,
2013-07-28 14:01:00,81.3,68.4,29.97,East,94,1.0,0.0,65,0.00,CLR,FEW,0.00,WeatherDisplay:10.37,2013-07-28 18:01:00,
2013-07-28 14:06:00,81.3,67.5,29.97,East,94,4.6,4.6,63,0.00,CLR,FEW,0.00,WeatherDisplay:10.37,2013-07-28 18:06:00,
2013-07-28 14:11:00,81.1,66.8,29.97,East,94,1.2,0.0,62,0.00,CLR,FEW,0.00,WeatherDisplay:10.37,2013-07-28 18:11:00,
2013-07-28 14:16:00,81.0,66.8,29.97,East,94,0.0,0.1,62,0.00,CLR,FEW,0.00,WeatherDisplay:10.37,2013-07-28 18:16:00,
2013-07-28 14:22:00,80.9,66.7,29.96,NNE,22,1.2,1.2,62,0.00,CLR,FEW,0.00,WeatherDisplay:10.37,2013-07-28 18:22:00,
2013-07-28 14:27:00,80.8,66.6,29.96,West,274,0.0,0.0,62,0.00,CLR,FEW,0.00,WeatherDisplay:10.37,2013-07-28 18:27:00,
2013-07-28 14:32:00,80.8,67.0,29.96,ENE,69,1.2,1.2,63,0.00,CLR,FEW,0.00,WeatherDisplay:10.37,2013-07-28 18:32:00,
2013-07-28 14:37:00,80.5,65.8,29.96,ENE,69,1.2,1.2,61,0.00,CLR,FEW,0.00,WeatherDisplay:10.37,2013-07-28 18:37:00,
2013-07-28 14:42:00,80.3,66.1,29.96,ENE,69,0.0,0.0,62,0.00,CLR,FEW,0.00,WeatherDisplay:10.37,2013-07-28 18:42:00,
2013-07-28 14:47:00,80.1,65.9,29.96,SW,216,0.0,0.1,62,0.00,CLR,FEW,0.00,WeatherDisplay:10.37,2013-07-28 18:47:00,
2013-07-28 14:52:00,80.2,66.0,29.96,ESE,121,0.0,0.0,62,0.00,CLR,FEW,0.00,WeatherDisplay:10.37,2013-07-28 18:52:00,
2013-07-28 14:57:00,80.3,67.0,29.96,ESE,121,1.2,0.0,64,0.00,CLR,FEW,0.00,WeatherDisplay:10.37,2013-07-28 18:57:00,
2013-07-28 15:02:00,80.3,67.0,29.96,ESE,121,0.0,0.0,64,0.00,CLR,FEW,0.00,WeatherDisplay:10.37,2013-07-28 19:02:00,
2013-07-28 15:08:00,80.3,65.6,29.96,ESE,121,1.2,0.0,61,0.00,CLR,FEW,0.00,WeatherDisplay:10.37,2013-07-28 19:08:00,
2013-07-28 15:13:00,80.3,68.3,29.96,ESE,121,0.0,0.0,67,0.00,CLR,FEW,0.00,WeatherDisplay:10.37,2013-07-28 19:13:00,
2013-07-28 15:18:00,80.0,66.7,29.96,ESE,121,1.2,1.2,64,0.00,CLR,FEW,0.00,WeatherDisplay:10.37,2013-07-28 19:18:00,
2013-07-28 15:23:00,79.7,66.4,29.95,ESE,121,1.2,0.0,64,0.00,CLR,FEW,0.00,WeatherDisplay:10.37,2013-07-28 19:23:00,
2013-07-28 15:28:00,79.7,66.9,29.95,ESE,122,0.0,0.0,65,0.00,CLR,FEW,0.00,WeatherDisplay:10.37,2013-07-28 19:28:00,
2013-07-28 15:33:00,79.7,66.9,29.95,ESE,122,1.2,0.0,65,0.00,CLR,FEW,0.00,WeatherDisplay:10.37,2013-07-28 19:33:00,
2013-07-28 15:38:00,79.6,66.8,29.95,NNE,24,1.2,1.2,65,0.00,CLR,FEW,0.00,WeatherDisplay:10.37,2013-07-28 19:38:00,
2013-07-28 15:43:00,79.6,69.0,29.95,NNE,24,0.0,0.0,70,0.00,CLR,FEW,0.00,WeatherDisplay:10.37,2013-07-28 19:43:00,
2013-07-28 15:48:00,79.6,69.0,29.95,NNE,24,1.2,1.2,70,0.00,CLR,FEW,0.00,WeatherDisplay:10.37,2013-07-28 19:48:00,
2013-07-28 15:53:00,79.6,67.7,29.95,NNE,24,0.0,0.0,67,0.00,CLR,FEW,0.00,WeatherDisplay:10.37,2013-07-28 19:53:00,
2013-07-28 15:58:00,79.6,68.1,29.95,NNE,24,1.2,1.2,68,0.00,CLR,FEW,0.00,WeatherDisplay:10.37,2013-07-28 19:58:00,
2013-07-28 16:03:00,79.4,67.9,29.95,NE,44,1.2,0.0,68,0.00,CLR,FEW,0.00,WeatherDisplay:10.37,2013-07-28 20:03:00,
2013-07-28 16:08:00,79.3,68.7,29.95,NE,44,0.0,0.0,70,0.00,CLR,FEW,0.00,WeatherDisplay:10.37,2013-07-28 20:08:00,
2013-07-28 16:13:00,79.1,68.1,29.95,NE,44,0.0,0.0,69,0.00,CLR,FEW,0.00,WeatherDisplay:10.37,2013-07-28 20:13:00,
2013-07-28 16:18:00,79.0,67.5,29.95,NE,44,0.0,0.0,68,0.00,CLR,FEW,0.00,WeatherDisplay:10.37,2013-07-28 20:18:00,
2013-07-28 16:23:00,79.0,68.8,29.95,NE,44,0.0,0.0,71,0.00,CLR,FEW,0.00,WeatherDisplay:10.37,2013-07-28 20:23:00,
2013-07-28 16:28:00,79.0,69.2,29.95,NE,44,0.0,0.1,72,0.00,CLR,FEW,0.00,WeatherDisplay:10.37,2013-07-28 20:28:00,
2013-07-28 16:33:00,78.7,68.1,29.95,NE,44,1.0,0.0,70,0.00,CLR,FEW,0.00,WeatherDisplay:10.37,2013-07-28 20:33:00,
2013-07-28 16:38:00,78.6,68.4,29.95,NE,44,0.0,0.0,71,0.00,CLR,FEW,0.00,WeatherDisplay:10.37,2013-07-28 20:38:00,
2013-07-28 16:43:00,78.4,68.2,29.95,NE,44,1.2,0.0,71,0.00,CLR,FEW,0.00,WeatherDisplay:10.37,2013-07-28 20:43:00,
2013-07-28 16:48:00,78.3,68.9,29.95,NE,44,0.0,0.0,73,0.00,CLR,FEW,0.00,WeatherDisplay:10.37,2013-07-28 20:48:00,
2013-07-28 16:53:00,78.3,69.3,29.95,NE,44,0.0,0.0,74,0.00,CLR,FEW,0.00,WeatherDisplay:10.37,2013-07-28 20:53:00,
2013-07-28 16:58:00,78.3,69.3,29.95,NE,44,0.0,0.1,74,0.00,CLR,FEW,0.00,WeatherDisplay:10.37,2013-07-28 20:58:00,
2013-07-28 17:03:00,78.2,69.2,29.95,NE,44,0.0,0.0,74,0.00,CLR,FEW,0.00,WeatherDisplay:10.37,2013-07-28 21:03:00,
2013-07-28 17:08:00,78.1,68.3,29.95,NE,44,0.0,0.0,72,0.00,CLR,FEW,0.00,WeatherDisplay:10.37,2013-07-28 21:08:00,
2013-07-28 17:13:00,78.0,69.4,29.95,NE,44,0.0,0.0,75,0.00,CLR,FEW,0.00,WeatherDisplay:10.37,2013-07-28 21:13:00,
2013-07-28 17:18:00,77.9,69.3,29.95,NE,44,0.0,0.0,75,0.00,CLR,FEW,0.00,WeatherDisplay:10.37,2013-07-28 21:18:00,
2013-07-28 17:23:00,77.8,70.0,29.95,NE,44,0.0,0.0,77,0.00,CLR,FEW,0.00,WeatherDisplay:10.37,2013-07-28 21:23:00,
2013-07-28 17:34:00,77.5,69.3,29.95,NE,44,0.0,0.0,76,0.00,CLR,FEW,0.00,WeatherDisplay:10.37,2013-07-28 21:34:00,
2013-07-28 17:39:00,77.3,69.1,29.95,NE,44,0.0,0.0,76,0.00,CLR,FEW,0.00,WeatherDisplay:10.37,2013-07-28 21:39:00,
2013-07-28 17:44:00,77.1,68.9,29.95,NE,44,0.0,0.0,76,0.00,CLR,FEW,0.00,WeatherDisplay:10.37,2013-07-28 21:44:00,
2013-07-28 17:49:00,76.9,69.1,29.95,NE,44,0.0,0.0,77,0.00,CLR,FEW,0.00,WeatherDisplay:10.37,2013-07-28 21:49:00,
2013-07-28 17:54:00,76.7,68.9,29.95,NE,44,0.0,0.0,77,0.00,CLR,FEW,0.00,WeatherDisplay:10.37,2013-07-28 21:54:00,
2013-07-28 17:59:00,76.6,69.6,29.95,NE,44,0.0,0.0,79,0.00,CLR,FEW,0.00,WeatherDisplay:10.37,2013-07-28 21:59:00,
2013-07-28 18:04:00,76.4,69.0,29.95,NE,44,0.0,0.0,78,0.00,CLR,FEW,0.00,WeatherDisplay:10.37,2013-07-28 22:04:00,
2013-07-28 18:09:00,76.1,68.4,29.95,NE,44,0.0,0.0,77,0.00,CLR,FEW,0.00,WeatherDisplay:10.37,2013-07-28 22:09:00,
2013-07-28 18:14:00,75.9,68.5,29.95,NE,44,0.0,0.0,78,0.00,CLR,FEW,0.00,WeatherDisplay:10.37,2013-07-28 22:14:00,
2013-07-28 18:19:00,75.3,68.0,29.96,NE,44,0.0,0.0,78,0.00,CLR,FEW,0.00,WeatherDisplay:10.37,2013-07-28 22:19:00,
2013-07-28 18:24:00,74.7,68.1,29.96,NE,44,0.0,0.0,80,0.00,CLR,FEW,0.00,WeatherDisplay:10.37,2013-07-28 22:24:00,
2013-07-28 18:29:00,74.1,67.9,29.96,NE,44,0.0,0.0,81,0.00,CLR,FEW,0.00,WeatherDisplay:10.37,2013-07-28 22:29:00,
2013-07-28 18:34:00,73.6,67.8,29.96,NE,44,0.0,0.0,82,0.00,CLR,FEW,0.00,WeatherDisplay:10.37,2013-07-28 22:34:00,
2013-07-28 18:39:00,73.2,68.1,29.96,NE,44,0.0,0.0,84,0.00,CLR,FEW,0.00,WeatherDisplay:10.37,2013-07-28 22:39:00,
2013-07-28 18:44:00,72.7,67.6,29.96,NE,44,0.0,0.0,84,0.00,CLR,FEW,0.00,WeatherDisplay:10.37,2013-07-28 22:44:00,
2013-07-28 18:49:00,72.3,67.5,29.97,NE,44,0.0,0.0,85,0.00,CLR,FEW,0.00,WeatherDisplay:10.37,2013-07-28 22:49:00,
2013-07-28 18:54:00,72.0,67.9,29.97,NE,44,0.0,0.0,87,0.00,CLR,FEW,0.00,WeatherDisplay:10.37,2013-07-28 22:54:00,
2013-07-28 18:59:00,71.6,67.9,29.96,NE,44,0.0,0.0,88,0.00,CLR,FEW,0.00,WeatherDisplay:10.37,2013-07-28 22:59:00,
2013-07-28 19:04:00,71.2,67.8,29.97,NE,44,0.0,0.0,89,0.00,CLR,FEW,0.00,WeatherDisplay:10.37,2013-07-28 23:04:00,
2013-07-28 19:09:00,71.0,67.6,29.97,NE,44,0.0,0.0,89,0.00,CLR,FEW,0.00,WeatherDisplay:10.37,2013-07-28 23:09:00,
2013-07-28 19:14:00,70.8,67.7,29.97,NE,44,0.0,0.0,90,0.00,CLR,FEW,0.00,WeatherDisplay:10.37,2013-07-28 23:14:00,
2013-07-28 19:19:00,70.7,67.6,29.97,NE,44,0.0,0.0,90,0.00,CLR,FEW,0.00,WeatherDisplay:10.37,2013-07-28 23:19:00,
2013-07-28 19:24:00,70.6,67.5,29.97,NE,44,0.0,0.0,90,0.00,CLR,FEW,0.00,WeatherDisplay:10.37,2013-07-28 23:24:00,
2013-07-28 19:29:00,70.5,67.7,29.98,NE,44,0.0,0.0,91,0.00,CLR,FEW,0.00,WeatherDisplay:10.37,2013-07-28 23:29:00,
2013-07-28 19:34:00,70.4,67.6,29.98,NE,44,0.0,0.0,91,0.00,CLR,FEW,0.00,WeatherDisplay:10.37,2013-07-28 23:34:00,
2013-07-28 19:39:00,70.3,67.9,29.98,NE,44,0.0,0.0,92,0.00,CLR,FEW,0.00,WeatherDisplay:10.37,2013-07-28 23:39:00,
2013-07-28 19:44:00,70.2,67.8,29.98,NE,44,0.0,0.0,92,0.00,CLR,FEW,0.00,WeatherDisplay:10.37,2013-07-28 23:44:00,
2013-07-28 19:49:00,70.2,67.8,29.98,NE,44,0.0,0.0,92,0.00,CLR,FEW,0.00,WeatherDisplay:10.37,2013-07-28 23:49:00,
2013-07-28 19:54:00,70.2,67.8,29.98,NE,44,0.0,0.0,92,0.00,CLR,FEW,0.00,WeatherDisplay:10.37,2013-07-28 23:54:00,
2013-07-28 19:59:00,70.1,67.7,29.98,NE,44,0.0,0.0,92,0.00,CLR,FEW,0.00,WeatherDisplay:10.37,2013-07-28 23:59:00,
2013-07-28 20:04:00,70.1,67.7,29.98,NE,44,0.0,0.0,92,0.00,CLR,FEW,0.00,WeatherDisplay:10.37,2013-07-29 00:04:00,
2013-07-28 20:09:00,70.1,67.7,29.98,NE,44,0.0,0.0,92,0.00,CLR,FEW,0.00,WeatherDisplay:10.37,2013-07-29 00:09:00,
2013-07-28 20:14:00,70.1,68.0,29.98,NE,44,0.0,0.0,93,0.00,CLR,FEW,0.00,WeatherDisplay:10.37,2013-07-29 00:14:00,
2013-07-28 20:19:00,70.0,67.6,29.98,NE,44,0.0,0.0,92,0.00,CLR,FEW,0.00,WeatherDisplay:10.37,2013-07-29 00:19:00,
2013-07-28 20:24:00,69.9,67.5,29.98,NE,44,0.0,0.0,92,0.00,CLR,FEW,0.00,WeatherDisplay:10.37,2013-07-29 00:24:00,
2013-07-28 20:29:00,69.9,67.5,29.98,NE,44,0.0,0.0,92,0.00,CLR,FEW,0.00,WeatherDisplay:10.37,2013-07-29 00:29:00,
2013-07-28 20:34:00,69.8,67.4,29.97,NE,44,0.0,0.0,92,0.00,CLR,FEW,0.00,WeatherDisplay:10.37,2013-07-29 00:34:00,
2013-07-28 20:39:00,69.7,67.3,29.97,NE,44,0.0,0.0,92,0.00,CLR,FEW,0.00,WeatherDisplay:10.37,2013-07-29 00:39:00,
2013-07-28 20:44:00,69.6,67.2,29.97,NE,44,0.0,0.0,92,0.00,CLR,FEW,0.00,WeatherDisplay:10.37,2013-07-29 00:44:00,
2013-07-28 20:49:00,69.5,67.1,29.97,NE,44,0.0,0.0,92,0.00,CLR,FEW,0.00,WeatherDisplay:10.37,2013-07-29 00:49:00,
2013-07-28 20:54:00,69.4,67.0,29.98,NE,44,0.0,0.0,92,0.00,CLR,FEW,0.00,WeatherDisplay:10.37,2013-07-29 00:54:00,
2013-07-28 20:59:00,69.3,67.2,29.98,NE,44,0.0,0.0,93,0.00,CLR,FEW,0.00,WeatherDisplay:10.37,2013-07-29 00:59:00,
2013-07-28 21:04:00,69.3,67.2,29.98,NE,44,0.0,0.0,93,0.00,CLR,FEW,0.00,WeatherDisplay:10.37,2013-07-29 01:04:00,
2013-07-28 21:09:00,69.2,67.1,29.98,NE,44,0.0,0.0,93,0.00,CLR,FEW,0.00,WeatherDisplay:10.37,2013-07-29 01:09:00,
2013-07-28 21:14:00,69.2,67.1,29.98,NE,44,0.0,0.0,93,0.00,CLR,FEW,0.00,WeatherDisplay:10.37,2013-07-29 01:14:00,
2013-07-28 21:19:00,69.1,67.0,29.98,NE,44,0.0,0.0,93,0.00,CLR,FEW,0.00,WeatherDisplay:10.37,2013-07-29 01:19:00,
2013-07-28 21:24:00,69.0,67.2,29.98,NE,44,0.0,0.0,94,0.00,CLR,FEW,0.00,WeatherDisplay:10.37,2013-07-29 01:24:00,
2013-07-28 21:30:00,69.0,67.2,29.99,NE,44,0.0,0.0,94,0.00,CLR,FEW,0.00,WeatherDisplay:10.37,2013-07-29 01:30:00,
2013-07-28 21:35:00,68.9,67.1,29.99,NE,44,0.0,0.0,94,0.00,CLR,FEW,0.00,WeatherDisplay:10.37,2013-07-29 01:35:00,
2013-07-28 21:40:00,68.8,67.0,29.99,NE,44,0.0,0.0,94,0.00,CLR,FEW,0.00,WeatherDisplay:10.37,2013-07-29 01:40:00,
2013-07-28 21:45:00,68.8,67.0,29.99,NE,44,0.0,0.0,94,0.00,CLR,FEW,0.00,WeatherDisplay:10.37,2013-07-29 01:45:00,
2013-07-28 21:50:00,68.7,66.9,29.99,NE,44,0.0,0.0,94,0.00,CLR,FEW,0.00,WeatherDisplay:10.37,2013-07-29 01:50:00,
2013-07-28 21:55:00,68.6,66.8,29.99,NE,44,0.0,0.0,94,0.00,CLR,FEW,0.00,WeatherDisplay:10.37,2013-07-29 01:55:00,
2013-07-28 22:00:00,68.6,66.8,29.99,NE,44,0.0,0.0,94,0.00,CLR,FEW,0.00,WeatherDisplay:10.37,2013-07-29 02:00:00,
2013-07-28 22:06:00,68.5,66.7,29.99,NE,44,0.0,0.0,94,0.00,CLR,FEW,0.00,WeatherDisplay:10.37,2013-07-29 02:06:00,
2013-07-28 22:11:00,68.4,66.6,29.99,NE,44,0.0,0.0,94,0.00,CLR,FEW,0.00,WeatherDisplay:10.37,2013-07-29 02:11:00,
2013-07-28 22:17:00,68.3,66.5,29.99,NE,44,0.0,0.0,94,0.00,CLR,FEW,0.00,WeatherDisplay:10.37,2013-07-29 02:17:00,
2013-07-28 22:22:00,68.3,66.5,29.98,NE,44,0.0,0.0,94,0.00,CLR,FEW,0.00,WeatherDisplay:10.37,2013-07-29 02:22:00,
2013-07-28 22:27:00,68.2,66.4,29.99,NE,44,0.0,0.0,94,0.00,CLR,FEW,0.00,WeatherDisplay:10.37,2013-07-29 02:27:00,
2013-07-28 22:32:00,68.1,66.3,29.99,NE,44,0.0,0.0,94,0.00,CLR,FEW,0.00,WeatherDisplay:10.37,2013-07-29 02:32:00,
2013-07-28 22:37:00,68.1,66.3,29.98,NE,44,0.0,0.0,94,0.00,CLR,FEW,0.00,WeatherDisplay:10.37,2013-07-29 02:37:00,
2013-07-28 22:42:00,68.1,66.3,29.99,NE,44,0.0,0.0,94,0.00,CLR,FEW,0.00,WeatherDisplay:10.37,2013-07-29 02:42:00,
2013-07-28 22:47:00,68.1,66.3,29.99,NE,44,0.0,0.0,94,0.00,CLR,FEW,0.00,WeatherDisplay:10.37,2013-07-29 02:47:00,
2013-07-28 22:52:00,68.0,66.5,29.99,NE,44,0.0,0.0,95,0.00,CLR,FEW,0.00,WeatherDisplay:10.37,2013-07-29 02:52:00,
2013-07-28 22:57:00,68.0,66.2,29.99,NE,44,0.0,0.0,94,0.00,CLR,FEW,0.00,WeatherDisplay:10.37,2013-07-29 02:57:00,
2013-07-28 23:02:00,68.0,66.2,29.99,NE,44,0.0,0.0,94,0.00,CLR,FEW,0.00,WeatherDisplay:10.37,2013-07-29 03:02:00,
2013-07-28 23:08:00,68.0,66.5,29.99,NE,44,0.0,0.0,95,0.00,CLR,FEW,0.00,WeatherDisplay:10.37,2013-07-29 03:08:00,
2013-07-28 23:13:00,68.0,66.5,29.99,NE,44,0.0,0.0,95,0.00,CLR,FEW,0.00,WeatherDisplay:10.37,2013-07-29 03:13:00,
2013-07-28 23:19:00,67.9,66.4,29.99,NE,44,0.0,0.0,95,0.00,CLR,FEW,0.00,WeatherDisplay:10.37,2013-07-29 03:19:00,
2013-07-28 23:24:00,67.9,66.4,30.00,NE,44,0.0,0.0,95,0.00,CLR,FEW,0.00,WeatherDisplay:10.37,2013-07-29 03:24:00,
2013-07-28 23:29:00,67.9,66.4,30.00,NE,44,0.0,0.0,95,0.00,CLR,FEW,0.00,WeatherDisplay:10.37,2013-07-29 03:29:00,
2013-07-28 23:35:00,67.8,66.3,30.00,NE,44,0.0,0.0,95,0.00,CLR,FEW,0.00,WeatherDisplay:10.37,2013-07-29 03:35:00,
2013-07-28 23:40:00,67.8,66.3,30.00,NE,44,0.0,0.0,95,0.00,CLR,FEW,0.00,WeatherDisplay:10.37,2013-07-29 03:40:00,
2013-07-28 23:45:00,67.8,66.3,29.99,NE,44,0.0,0.0,95,0.00,CLR,FEW,0.00,WeatherDisplay:10.37,2013-07-29 03:45:00,
2013-07-28 23:50:00,67.7,66.2,29.99,NE,44,0.0,0.0,95,0.00,CLR,FEW,0.00,WeatherDisplay:10.37,2013-07-29 03:50:00,
2013-07-28 23:55:00,67.7,66.2,29.99,NE,44,1.2,1.2,95,0.00,CLR,FEW,0.00,WeatherDisplay:10.37,2013-07-29 03:55:00,